The Strange B meson is a meson composed of a bottom antiquark and a strange quark. Its antiparticle is the B s meson, composed of a bottom quark and a strange antiquark. Strange B mesons are noted for their ability to oscillate between matter and antimatter via a box-diagram with Delta ms = 17.77 ± 0.10 (...
Orbital elements:
2012 LE11 Earth MOID = 0.1713 AU
Epoch 2012 Mar. 14.0 TT = JDT 2456000.5 MPC
M 331.79936 (2000.0) P Q
n 0.21922246 Peri. 129.08434 +0.70136939 +0.71261512
a 2.7240350 Node 185.53756 -0.69469237 +0.67830598
e 0.5846670 Incl. 9.63152 -0.15963547 +0.17911084
P 4.50 H 17.9...
Typhoon Guchol (05W) is forecast to make landfall in Okinawa (26.3 N, 127.8 E) in about 90 hours probability for CAT 1 or above is 35% in about 90 hours probability for TS is 50% in about 90 hours
Jerome Karle, born Jerome Karfunkel (born June 18, 1918) is an American physical chemist. Jointly with Herbert A. Hauptman, he was awarded the Nobel Prize in Chemistry in 1985, for the direct analysis of crystal structures using X-ray scattering techniques. Read more
Delia Smith CBE (born 18 June 1941) is an English cook and television presenter, known for teaching basic cookery skills in a no-nonsense style. She is the UK's best-selling cookery author, with more than 21 million copies sold. Smith is also famous for her role as joint majority shareholder at Norw...
Vitaly Mikhaylovich Zholobov (born June 18, 1937 in Zburyivka, Kherson Oblast Ukrainian SSR) was a Soviet cosmonaut who flew on Soyuz 21 space flight as the flight engineer. Read more
Event Details: From: 18 Jun 2012 To: 22 Jun 2012 Address: Orthodox Academy of Crete GR-73006 Kolympari Chania-Crete Country: Greece This meeting will honour the contributions to star formation of Prof. Anthony Whitworth (Cardiff University, UK), and offer the opportunity to celebrate his 66...
George Herbert Leigh Mallory (18 June 1886 - 8/9 June 1924) was an English mountaineer who took part in the first three British expeditions to Mount Everest in the early 1920s. Read more
Samuel Wallis, an English sea captain, sighted Tahiti on 18 June 1767, received by Queen Purea and is considered the first European visitor. (A later report of an earlier sighting of Tahiti by the Portuguese navigator Pedro Fernandes de Queirós, serving the Spanish Crown, in 1606, is likely to have...
Telescope could have magnified sun, igniting house fire Before you set up your telescope for the next star-gazing opportunity, you might want to make sure you have a fire extinguisher nearby. Fire investigators in Carefree now suspect a house fire Monday night was ignited by the sun reflected and...
Sir William Crookes, OM, FRS (17 June 1832 - 4 April 1919) was a British chemist and physicist who attended the Royal College of Chemistry, London, and worked on spectroscopy. He was a pioneer of vacuum tubes, inventing the Crookes tube. Read more
New Albion, also known as Nova Albion, was the name of the region of the Pacific coast of North America explored by Sir Francis Drake and claimed by him for England in 1579. The extent of New Albion and the location of Drake's landing have long been debated by historians, with most believing that he came...
Title: CLaSPS: a new methodology for Knowledge extraction from complex astronomical dataset Authors: R. D'Abrusco, G. Fabbiano, G. Djorgovski, C. Donalek, O. Laurino, G. Longo In this paper we present the Clustering-Labels-Score Patterns Spotter (CLaSPS), a new methodology for the determin...
Title: Image Properties of Embedded Lenses Authors: Ronald Kantowski, Bin Chen, Xinyu Dai We give analytic expressions for image properties of objects seen around point mass lenses embedded in a flat \Lambda CDM universe. An embedded lens in an otherwise homogeneous universe offers a more reali...